Lid_Strength_Index
5 5 5 4 3 3 3 3 2 2 2 2 2 0 -0 -0 -1 1 4 1 0 -1 -0 2 2 2 2 4 4 5 11 13 12 11 11 7 9 6 6 6 6 5 6 4 2
5 4 4 5 4 3 3 3 3 3 2 2 2 2 -0 -1 2 3 -0 -1 -0 -1 2 3 4 4 6 6 6 8 12 11 8 9 9 8 8 7 8 8 8 7 4 3 3
5 5 4 5 5 4 3 3 4 4 3 3 2 2 1 -0 4 4 -1 -1 -1 -1 2 2 3 4 7 6 7 8 11 8 8 8 8 8 8 7 8 10 7 8 6 4 4
6 5 4 5 4 4 5 3 3 4 4 3 2 2 1 2 11 2 -1 -1 -0 -1 2 3 4 7 8 9 6 10 7 7 7 7 7 9 8 8 8 7 5 5 4 4 4
5 5 5 4 4 4 5 4 4 4 4 3 2 1 3 5 5 -0 -1 -1 -0 1 3 5 6 7 10 8 7 9 8 6 7 7 7 7 8 8 8 6 4 4 4 5 4
4 5 5 5 4 5 5 4 4 4 4 3 3 0 4 8 0 -0 -0 0 1 2 3 4 6 5 8 8 8 7 7 7 7 7 7 7 8 8 7 5 5 5 5 5 4
4 4 4 4 4 4 4 4 4 4 3 3 1 1 4 5 0 -0 -0 1 1 2 4 3 3 6 6 9 6 7 10 8 7 7 8 7 10 9 6 6 6 6 5 5 4
4 4 4 4 4 4 4 4 4 3 2 0 -2 1 6 0 0 0 0 2 1 1 2 2 2 5 7 6 8 10 10 13 9 8 7 8 13 8 6 6 7 6 6 5 4
4 4 4 4 4 4 4 3 3 1 -1 -2 1 3 7 -1 3 1 1 3 2 2 2 2 3 7 7 11 13 12 15 14 12 7 8 9 12 8 6 6 7 7 6 6 5
4 3 3 3 4 3 3 3 2 0 -0 -0 1 6 4 5 2 2 1 1 4 4 5 6 7 10 10 12 17 15 15 13 13 10 9 10 11 8 7 7 7 7 6 6 5
3 3 3 4 3 3 4 5 7 6 4 6 6 6 4 2 1 3 1 3 4 6 10 8 12 14 12 11 11 11 13 14 12 10 11 11 11 9 7 8 8 8 7 6 6
3 2 3 3 3 3 4 6 4 3 8 4 4 4 3 2 6 4 2 7 8 11 9 10 13 11 9 10 11 12 13 14 12 10 11 12 12 10 8 7 8 8 7 6 6
3 2 3 3 2 4 5 4 0 1 8 6 4 5 4 3 6 6 4 6 9 11 10 12 11 10 11 11 13 13 14 13 14 12 11 12 13 11 9 7 8 7 6 6 6
2 2 2 2 5 4 5 0 -0 2 11 10 7 5 4 4 8 3 3 6 9 11 10 11 9 11 12 13 12 15 11 12 13 14 17 12 18 13 10 9 8 8 7 7 9
2 2 2 2 5 5 2 -0 0 4 24 8 7 2 4 7 6 6 3 6 10 10 10 12 11 12 13 13 11 13 10 12 12 14 15 15 17 14 10 11 10 9 8 9 9
2 2 2 3 3 2 0 1 4 16 23 13 7 8 8 7 7 6 6 5 6 9 9 10 8 10 11 10 10 9 11 12 12 14 19 16 16 16 13 11 10 9 9 10 12
2 2 2 2 4 0 1 5 17 23 12 14 11 9 10 10 9 9 10 11 13 15 15 11 11 9 8 11 10 11 14 19 20 20 21 14 16 15 12 10 9 10 11 12 13
2 2 2 1 1 1 4 13 23 22 20 9 9 10 12 10 10 10 11 12 11 12 14 16 17 11 9 11 13 13 14 18 23 22 20 15 19 15 12 10 9 10 12 13 14
2 4 4 4 1 2 9 21 20 18 13 13 11 13 17 11 11 11 12 12 11 11 16 16 15 10 9 9 10 13 16 12 17 20 20 17 15 13 12 12 12 13 13 14 14
6 7 6 3 2 5 12 15 16 8 9 9 15 13 15 18 14 13 13 10 11 9 8 12 16 11 10 9 9 11 10 16 16 23 23 19 18 16 15 14 12 13 15 14 14
7 9 6 3 4 10 15 12 10 7 7 10 12 14 12 13 13 12 14 10 9 9 8 10 13 14 11 13 14 13 14 14 14 18 21 21 18 15 13 12 13 13 14 14 13
9 16 6 4 12 10 12 10 8 8 7 8 9 10 15 12 12 12 14 11 8 8 12 10 12 16 15 10 10 11 13 13 17 18 17 17 18 14 13 11 11 12 13 12 11
11 10 6 5 18 12 10 11 9 9 9 9 10 9 9 11 13 11 11 8 8 9 11 10 14 17 16 13 11 13 12 12 12 13 17 18 17 13 11 11 10 12 12 11 11
10 16 10 8 8 12 11 11 11 7 9 9 10 8 10 11 10 12 12 9 7 9 7 8 13 15 18 15 13 15 13 12 13 17 16 16 15 14 12 12 11 11 11 11 11
11 11 11 18 15 10 10 10 11 13 10 10 11 11 11 15 12 12 11 10 8 8 8 10 14 13 13 13 11 13 13 13 15 13 16 14 13 12 12 11 10 10 10 10 10
12 14 14 15 13 12 13 16 13 14 13 13 13 11 11 13 12 13 11 10 11 9 10 9 14 13 14 13 12 14 12 12 12 12 13 12 13 9 10 10 9 9 9 10 11
10 9 9 10 13 15 14 14 12 12 12 10 11 11 12 12 11 10 10 10 9 10 11 11 14 14 16 15 15 19 14 12 12 11 11 15 11 10 11 11 10 10 10 10 10